STARLINK-3912, 52502

Orbit data source: Space-Track

STARLINK-3912, 52502 is a payload satellite owned by SpaceX/Seattle (US) in LEO that was launched on Fri, 06 May 2022 UTC via an FALCON 9 launch vehicle from the Air Force Eastern Test Range (AFETR). Payload-class satellites include a variety of spacecraft equipped with specific instruments for various scientific and technological missions. These include communications satellites like Starlink; space stations such as the ISS; scientific satellites like the Hubble; Earth observation satellites from companies like Planet Labs, Umbra, and HawkEye 360; GPS; miniature CubeSats for education and research; and military/defense satellites.

Loading next visibility...
Identifier
52502, 2022-049BD
Orbit
LEO
Country
Flag of USUS
Related business
Manufacturer
SpaceX/Seattle
Mission
Operational Commercial Communications
Bus & Motor
STARLINK, Unknown motor
Mass
297 kg wet, ~220 kg dry
Launch date (UTC)
2022-05-06 (4 years ago)
Launch vehicle
FALCON 9
Launch site
Air Force Eastern Test Range (AFETR)
Object type
Payload
Rocket body
Debris
Shape & HBR
Box + 1 Pan, 10.1 m
Radar Cross Section
13.562 m², Large (>1 m²)

Expand to show TLE details & history
Last TLE update: 16 hours ago

TLE from 16 hours ago
0 STARLINK-3912
1 52502U 22049BD  25346.94388243 -.00000145  00000-0  89566-5 0  9992
2 52502  53.2180  68.5643 0001332  88.1273 271.9872 15.08833603199434
Epoch: 2025-12-12T22:39Z
TLE epoch observation values (Epoch: 2025-12-12T22:39:11.441Z)
Latitude
-0.00002°
Longitude
6.88837°
Altitude
540.629 km
Speed
7.593 km/s
True Right ascension
04h 34m 15s
True Declination
0° 00' 00"
Sunlit
Object was in full shadow at epoch
Visualization orbit readout
Latitude
Unknown
Longitude
Unknown
Altitude
Unknown
Speed
Unknown
Apparent Right ascension
Unknown
Apparent Declination
Unknown
Sunlit
N/A
Visualization observer readout
Local Sidereal Time
12:54:29
Azimuth
Unknown
Elevation
Unknown
Doppler factor
Unknown
Orbital elements
Apogee altitude
540.929 km
Perigee altitude
539.086 km
Semi-major axis
6,918.145 km
Eccentricity
0.00013
Inclination
53.218°
RAAN
68.5643°
Arg. of periapsis
88.1273°
True anomaly
271.97195°
Mean anomaly
271.9872°
Eccentric anomaly
271.97957°
Mean motion
3.77189 °/min
Orbital period
95.44 mins
BSTAR
0.0000089566
Loading maneuver chart data...
Computing Atmospheric mass density...
Loading historical data...
Loading historical data...
Loading historical data...
Loading historical data...
Loading historical data...
Loading historical data...
Loading historical data...

Documentation

Showing up to 5 results
|